Time,TemperatureF,DewpointF,PressureIn,WindDirection,WindDirectionDegrees,WindSpeedMPH,WindSpeedGustMPH,Humidity,HourlyPrecipIn,Conditions,Clouds,dailyrainin,SoftwareType,DateUTC
2013-08-12 11:28:00,72.1,66.6,30.06,West,270,3.7,-999.0,83,-99.99,,,0.00,Acu-Link.com,2013-08-12 15:28:00,
2013-08-12 11:43:00,71.4,67.0,30.06,West,270,2.2,-999.0,86,-99.99,,,0.00,Acu-Link.com,2013-08-12 15:43:00,
2013-08-12 11:59:00,72.7,66.2,30.06,NW,315,1.1,-999.0,80,-99.99,,,0.00,Acu-Link.com,2013-08-12 15:59:00,
2013-08-12 12:14:00,74.5,65.7,30.06,SE,135,2.2,-999.0,74,-99.99,,,0.00,Acu-Link.com,2013-08-12 16:14:00,
2013-08-12 12:30:00,74.3,65.8,30.06,SW,225,4.2,-999.0,75,-99.99,,,0.00,Acu-Link.com,2013-08-12 16:30:00,
2013-08-12 12:45:00,74.7,67.4,30.06,West,270,3.7,-999.0,78,-99.99,,,0.00,Acu-Link.com,2013-08-12 16:45:00,
2013-08-12 13:01:00,74.3,66.6,30.05,SSW,202,2.7,-999.0,77,-99.99,,,0.00,Acu-Link.com,2013-08-12 17:01:00,
2013-08-12 13:18:00,74.3,66.2,30.05,West,270,2.2,-999.0,76,-99.99,,,0.00,Acu-Link.com,2013-08-12 17:18:00,
2013-08-12 13:38:00,76.6,67.3,30.04,North,0,3.7,-999.0,73,-99.99,,,0.00,Acu-Link.com,2013-08-12 17:38:00,
2013-08-12 13:54:00,75.6,67.9,30.04,NE,45,2.2,-999.0,77,-99.99,,,0.00,Acu-Link.com,2013-08-12 17:54:00,
2013-08-12 14:09:00,76.5,67.6,30.04,West,270,1.7,-999.0,74,-99.99,,,0.00,Acu-Link.com,2013-08-12 18:09:00,
2013-08-12 14:24:00,76.5,68.7,30.03,SW,225,3.7,-999.0,77,-99.99,,,0.00,Acu-Link.com,2013-08-12 18:24:00,
2013-08-12 14:40:00,75.9,67.8,30.04,WNW,292,3.7,-999.0,76,-99.99,,,0.00,Acu-Link.com,2013-08-12 18:40:00,
2013-08-12 14:56:00,76.5,66.8,30.03,NW,315,3.2,-999.0,72,-99.99,,,0.00,Acu-Link.com,2013-08-12 18:56:00,
2013-08-12 15:13:00,77.2,67.1,30.03,WNW,292,1.7,-999.0,71,-99.99,,,0.00,Acu-Link.com,2013-08-12 19:13:00,
2013-08-12 15:28:00,77.7,66.7,30.02,SW,225,3.7,-999.0,69,-99.99,,,0.00,Acu-Link.com,2013-08-12 19:28:00,
2013-08-12 15:44:00,78.8,68.6,30.00,West,270,2.2,-999.0,71,-99.99,,,0.00,Acu-Link.com,2013-08-12 19:44:00,
2013-08-12 16:00:00,78.8,67.3,29.99,WNW,292,2.7,-999.0,68,-99.99,,,0.00,Acu-Link.com,2013-08-12 20:00:00,
2013-08-12 16:15:00,78.3,66.8,30.00,SW,225,3.2,-999.0,68,-99.99,,,0.00,Acu-Link.com,2013-08-12 20:15:00,
2013-08-12 16:31:00,79.3,67.4,30.00,South,180,1.1,-999.0,67,-99.99,,,0.00,Acu-Link.com,2013-08-12 20:31:00,
2013-08-12 16:46:00,78.1,67.1,30.00,WNW,292,1.7,-999.0,69,-99.99,,,0.00,Acu-Link.com,2013-08-12 20:46:00,
2013-08-12 17:02:00,77.7,66.3,30.00,North,0,1.1,-999.0,68,-99.99,,,0.00,Acu-Link.com,2013-08-12 21:02:00,
2013-08-12 17:20:00,78.8,68.2,29.99,West,270,2.2,-999.0,70,-99.99,,,0.00,Acu-Link.com,2013-08-12 21:20:00,
2013-08-12 17:35:00,76.8,67.1,29.99,WSW,247,2.2,-999.0,72,-99.99,,,0.00,Acu-Link.com,2013-08-12 21:35:00,
2013-08-12 17:52:00,78.8,66.5,29.97,NNW,337,2.2,-999.0,66,-99.99,,,0.00,Acu-Link.com,2013-08-12 21:52:00,
2013-08-12 18:07:00,77.9,66.9,29.98,West,270,3.7,-999.0,69,-99.99,,,0.00,Acu-Link.com,2013-08-12 22:07:00,